STARLINK-11254, 60731

Orbit data source: Space-Track

STARLINK-11254, 60731 is a payload satellite owned by SpaceX/Seattle (US) in LEO that was launched on Wed, 28 Aug 2024 UTC via an FALCON 9 launch vehicle from the Air Force Eastern Test Range (AFETR). Payload-class satellites include a variety of spacecraft equipped with specific instruments for various scientific and technological missions. These include communications satellites like Starlink; space stations such as the ISS; scientific satellites like the Hubble; Earth observation satellites from companies like Planet Labs, Umbra, and HawkEye 360; GPS; miniature CubeSats for education and research; and military/defense satellites.

Loading next visibility...
Identifier
60731, 2024-152M
Orbit
LEO
Country
Flag of USUS
Related business
Manufacturer
SpaceX/Seattle
Mission
Operational Commercial Communications
Bus & Motor
STARLINK V2MD, Unknown motor
Mass
960 kg wet, ~910 kg dry
Launch date (UTC)
2024-08-28 (1 year ago)
Launch vehicle
FALCON 9
Launch site
Air Force Eastern Test Range (AFETR)
Object type
Payload
Rocket body
Debris
Shape & HBR
Box + 2 Pan, 18.1 m
Radar Cross Section
36.964 m², Large (>1 m²)

Expand to show TLE details & history
Last TLE update: 8 hours ago

TLE from 8 hours ago
0 STARLINK-11254
1 60731U 24152M   25295.80997273 -.00002285  00000-0 -14001-4 0  9998
2 60731  53.1586  75.6491 0001023  97.0824 263.0311 15.69720169 67190
Epoch: 2025-10-22T19:26Z
TLE epoch observation values (Epoch: 2025-10-22T19:26:21.643Z)
Latitude
0.00002°
Longitude
112.58069°
Altitude
360.696 km
Speed
7.694 km/s
True Right ascension
05h 02m 35s
True Declination
0° 00' 00"
Sunlit
Object was in full shadow at epoch
Visualization orbit readout
Latitude
Unknown
Longitude
Unknown
Altitude
Unknown
Speed
Unknown
Apparent Right ascension
Unknown
Apparent Declination
Unknown
Sunlit
N/A
Visualization observer readout
Local Sidereal Time
22:10:41
Azimuth
Unknown
Elevation
Unknown
Doppler factor
Unknown
Orbital elements
Apogee altitude
360.648 km
Perigee altitude
359.269 km
Semi-major axis
6,738.096 km
Eccentricity
0.0001
Inclination
53.1586°
RAAN
75.6491°
Arg. of periapsis
97.0824°
True anomaly
263.01946°
Mean anomaly
263.0311°
Eccentric anomaly
263.02528°
Mean motion
3.92408 °/min
Orbital period
91.74 mins
BSTAR
-0.000014001
Loading maneuver chart data...
Computing Atmospheric mass density...
Loading historical data...
Loading historical data...
Loading historical data...
Loading historical data...
Loading historical data...
Loading historical data...
Loading historical data...

Documentation

Showing up to 5 results
|